Time,TemperatureF,DewpointF,PressureIn,WindDirection,WindDirectionDegrees,WindSpeedMPH,WindSpeedGustMPH,Humidity,HourlyPrecipIn,Conditions,Clouds,dailyrainin,SoftwareType,DateUTC
2013-03-30 00:02:00,57.0,51.0,29.97,SSE,160,13.0,18.0,80,0.00,,,0.00,,2013-03-30 05:02:00,
2013-03-30 00:12:00,57.0,51.0,29.97,SSE,160,13.0,18.0,80,0.00,,,0.00,,2013-03-30 05:12:00,
2013-03-30 00:22:00,57.0,51.0,29.98,SSE,165,13.0,16.0,80,0.00,,,0.00,,2013-03-30 05:22:00,
2013-03-30 00:32:00,57.0,51.0,29.98,SSE,163,9.0,16.0,80,0.00,,,0.00,,2013-03-30 05:32:00,
2013-03-30 00:42:00,57.0,51.0,29.98,SSE,163,9.0,16.0,80,0.00,,,0.00,,2013-03-30 05:42:00,
2013-03-30 00:52:00,57.0,51.0,29.99,SSE,163,6.0,14.0,81,0.00,,,0.00,,2013-03-30 05:52:00,
2013-03-30 01:02:00,57.0,51.0,29.98,SSE,150,8.0,14.0,81,0.00,,,0.00,,2013-03-30 06:02:00,
2013-03-30 01:12:00,57.0,51.0,29.98,SSE,150,8.0,14.0,81,0.00,,,0.00,,2013-03-30 06:12:00,
2013-03-30 01:22:00,56.0,51.0,29.98,SSE,155,10.0,13.0,82,0.00,,,0.00,,2013-03-30 06:22:00,
2013-03-30 01:32:00,56.0,51.0,29.98,SE,146,7.0,12.0,82,0.00,,,0.00,,2013-03-30 06:32:00,
2013-03-30 01:42:00,56.0,51.0,29.98,SE,146,7.0,12.0,82,0.00,,,0.00,,2013-03-30 06:42:00,
2013-03-30 01:52:00,55.0,50.0,29.98,SSE,149,5.0,8.0,83,0.00,,,0.00,,2013-03-30 06:52:00,
2013-03-30 02:02:00,55.0,50.0,29.97,SSE,149,6.0,9.0,84,0.00,,,0.00,,2013-03-30 07:02:00,
2013-03-30 02:12:00,55.0,50.0,29.97,SSE,149,6.0,9.0,84,0.00,,,0.00,,2013-03-30 07:12:00,
2013-03-30 02:22:00,55.0,50.0,29.96,SSE,147,6.0,10.0,84,0.00,,,0.00,,2013-03-30 07:22:00,
2013-03-30 02:32:00,55.0,51.0,29.97,SSE,158,0.0,5.0,85,0.00,,,0.00,,2013-03-30 07:32:00,
2013-03-30 02:42:00,55.0,51.0,29.97,SSE,158,0.0,5.0,85,0.00,,,0.00,,2013-03-30 07:42:00,
2013-03-30 02:52:00,55.0,51.0,29.96,SSE,158,0.0,0.0,85,0.00,,,0.00,,2013-03-30 07:52:00,
2013-03-30 03:02:00,55.0,51.0,29.95,SSE,158,3.0,5.0,86,0.00,,,0.00,,2013-03-30 08:02:00,
2013-03-30 03:12:00,55.0,51.0,29.95,SSE,158,3.0,5.0,86,0.00,,,0.00,,2013-03-30 08:12:00,
2013-03-30 03:21:00,55.0,51.0,29.93,SSE,150,6.0,10.0,86,0.00,,,0.00,,2013-03-30 08:21:00,
2013-03-30 03:32:00,55.0,51.0,29.91,SSE,165,7.0,12.0,86,0.00,,,0.00,,2013-03-30 08:32:00,
2013-03-30 03:42:00,55.0,51.0,29.91,SSE,165,7.0,12.0,86,0.00,,,0.00,,2013-03-30 08:42:00,
2013-03-30 03:52:00,54.0,50.0,29.98,NNW,335,2.0,15.0,87,0.33,,,0.33,,2013-03-30 08:52:00,
2013-03-30 04:02:00,52.0,49.0,29.93,SSE,165,7.0,13.0,90,0.52,,,0.52,,2013-03-30 09:02:00,
2013-03-30 04:12:00,52.0,49.0,29.88,South,190,4.0,6.0,90,0.55,,,0.55,,2013-03-30 09:12:00,
2013-03-30 04:22:00,52.0,49.0,29.88,South,190,4.0,6.0,90,0.55,,,0.55,,2013-03-30 09:22:00,
2013-03-30 04:43:00,53.0,50.0,29.88,SE,144,7.0,9.0,90,0.56,,,0.56,,2013-03-30 09:43:00,
2013-03-30 04:53:00,51.0,48.0,29.90,SE,139,9.0,13.0,89,0.24,,,0.56,,2013-03-30 09:53:00,
2013-03-30 05:02:00,51.0,48.0,29.89,SE,142,9.0,16.0,89,0.04,,,0.56,,2013-03-30 10:02:00,
2013-03-30 05:13:00,51.0,48.0,29.89,SE,142,9.0,16.0,89,0.04,,,0.56,,2013-03-30 10:13:00,
2013-03-30 05:23:00,51.0,48.0,29.90,SE,138,9.0,12.0,89,0.01,,,0.56,,2013-03-30 10:23:00,
2013-03-30 05:33:00,50.0,47.0,29.90,SE,142,10.0,12.0,89,0.00,,,0.56,,2013-03-30 10:33:00,
2013-03-30 05:42:00,50.0,47.0,29.90,SE,142,10.0,12.0,89,0.00,,,0.56,,2013-03-30 10:42:00,
2013-03-30 05:52:00,50.0,47.0,29.90,South,188,3.0,9.0,89,0.00,,,0.56,,2013-03-30 10:52:00,
2013-03-30 06:03:00,50.0,47.0,29.91,SSW,195,0.0,6.0,89,0.00,,,0.56,,2013-03-30 11:03:00,
2013-03-30 06:12:00,50.0,47.0,29.91,SSW,195,0.0,6.0,89,0.00,,,0.56,,2013-03-30 11:12:00,
2013-03-30 06:22:00,50.0,47.0,29.91,SSW,195,1.0,4.0,90,0.00,,,0.56,,2013-03-30 11:22:00,
2013-03-30 06:33:00,50.0,47.0,29.91,SSW,203,2.0,3.0,90,0.00,,,0.56,,2013-03-30 11:33:00,
2013-03-30 06:42:00,50.0,47.0,29.91,SSW,203,2.0,3.0,90,0.00,,,0.56,,2013-03-30 11:42:00,
2013-03-30 06:52:00,50.0,47.0,29.90,WSW,241,0.0,0.0,90,0.00,,,0.56,,2013-03-30 11:52:00,
2013-03-30 07:02:00,49.0,46.0,29.91,WSW,242,0.0,0.0,90,0.00,,,0.56,,2013-03-30 12:02:00,
2013-03-30 07:12:00,49.0,46.0,29.91,WSW,242,0.0,0.0,90,0.00,,,0.56,,2013-03-30 12:12:00,
2013-03-30 07:22:00,49.0,46.0,29.91,WSW,242,0.0,0.0,91,0.00,,,0.56,,2013-03-30 12:22:00,
2013-03-30 07:32:00,49.0,46.0,29.91,WSW,242,0.0,0.0,91,0.00,,,0.56,,2013-03-30 12:32:00,
2013-03-30 07:42:00,49.0,46.0,29.91,WSW,242,0.0,0.0,91,0.00,,,0.56,,2013-03-30 12:42:00,
2013-03-30 07:52:00,50.0,47.0,29.93,WSW,242,0.0,0.0,91,0.00,,,0.56,,2013-03-30 12:52:00,
2013-03-30 08:02:00,49.0,46.0,29.93,WSW,241,0.0,0.0,91,0.00,,,0.56,,2013-03-30 13:02:00,
2013-03-30 08:12:00,49.0,46.0,29.93,WSW,241,0.0,0.0,91,0.00,,,0.56,,2013-03-30 13:12:00,
2013-03-30 08:22:00,49.0,46.0,29.94,WSW,241,0.0,0.0,91,0.00,,,0.56,,2013-03-30 13:22:00,
2013-03-30 08:32:00,50.0,47.0,29.95,WSW,241,0.0,0.0,91,0.00,,,0.56,,2013-03-30 13:32:00,
2013-03-30 08:42:00,50.0,47.0,29.95,WSW,241,0.0,0.0,91,0.00,,,0.56,,2013-03-30 13:42:00,
2013-03-30 08:52:00,51.0,49.0,29.94,WSW,241,0.0,0.0,92,0.00,,,0.56,,2013-03-30 13:52:00,
2013-03-30 09:02:00,52.0,49.0,29.94,WSW,241,0.0,0.0,90,0.00,,,0.56,,2013-03-30 14:02:00,
2013-03-30 09:11:00,52.0,49.0,29.94,WSW,241,0.0,0.0,90,0.00,,,0.56,,2013-03-30 14:11:00,
2013-03-30 09:22:00,54.0,50.0,29.93,SSE,168,1.0,6.0,87,0.00,,,0.56,,2013-03-30 14:22:00,
2013-03-30 09:32:00,56.0,52.0,29.92,SSW,203,3.0,6.0,86,0.00,,,0.56,,2013-03-30 14:32:00,
2013-03-30 09:42:00,56.0,52.0,29.92,SSW,203,3.0,6.0,86,0.00,,,0.56,,2013-03-30 14:42:00,
2013-03-30 09:52:00,57.0,53.0,29.92,SW,227,3.0,7.0,86,0.00,,,0.56,,2013-03-30 14:52:00,
2013-03-30 10:02:00,58.0,53.0,29.92,SSW,196,2.0,5.0,83,0.00,,,0.56,,2013-03-30 15:02:00,
2013-03-30 10:12:00,58.0,53.0,29.92,SSW,196,2.0,5.0,83,0.00,,,0.56,,2013-03-30 15:12:00,
2013-03-30 10:22:00,58.0,54.0,29.92,SW,225,1.0,7.0,85,0.00,,,0.56,,2013-03-30 15:22:00,
2013-03-30 10:33:00,58.0,54.0,29.92,WSW,240,2.0,6.0,85,0.00,,,0.56,,2013-03-30 15:33:00,
2013-03-30 10:43:00,58.0,54.0,29.92,WSW,240,2.0,6.0,85,0.00,,,0.56,,2013-03-30 15:43:00,
2013-03-30 10:52:00,59.0,55.0,29.92,SSW,209,2.0,8.0,86,0.00,,,0.56,,2013-03-30 15:52:00,
2013-03-30 11:03:00,59.0,55.0,29.93,SSE,167,1.0,7.0,86,0.00,,,0.56,,2013-03-30 16:03:00,
2013-03-30 11:13:00,59.0,55.0,29.93,SE,133,1.0,5.0,87,0.00,,,0.56,,2013-03-30 16:13:00,
2013-03-30 11:23:00,59.0,55.0,29.93,SE,133,1.0,5.0,87,0.00,,,0.56,,2013-03-30 16:23:00,
2013-03-30 11:33:00,60.0,56.0,29.93,WSW,248,2.0,6.0,86,0.00,,,0.56,,2013-03-30 16:33:00,
2013-03-30 11:43:00,60.0,56.0,29.93,WSW,248,2.0,6.0,86,0.00,,,0.56,,2013-03-30 16:43:00,
2013-03-30 11:52:00,61.0,56.0,29.93,WSW,241,4.0,6.0,84,0.00,,,0.56,,2013-03-30 16:52:00,
2013-03-30 12:02:00,63.0,57.0,29.91,SSW,201,1.0,7.0,82,0.00,,,0.56,,2013-03-30 17:02:00,
2013-03-30 12:13:00,63.0,57.0,29.91,SSW,201,1.0,7.0,82,0.00,,,0.56,,2013-03-30 17:13:00,
2013-03-30 12:22:00,64.0,56.0,29.91,WNW,294,3.0,7.0,76,0.00,,,0.56,,2013-03-30 17:22:00,
2013-03-30 12:32:00,64.0,56.0,29.92,WSW,244,4.0,7.0,74,0.00,,,0.56,,2013-03-30 17:32:00,
2013-03-30 12:42:00,64.0,56.0,29.92,WSW,244,4.0,7.0,74,0.00,,,0.56,,2013-03-30 17:42:00,
2013-03-30 12:52:00,65.0,55.0,29.91,WNW,288,3.0,8.0,71,0.00,,,0.56,,2013-03-30 17:52:00,
2013-03-30 13:03:00,64.0,54.0,29.92,NW,311,2.0,6.0,70,0.00,,,0.56,,2013-03-30 18:03:00,
2013-03-30 13:12:00,65.0,55.0,29.92,NW,310,2.0,7.0,70,0.00,,,0.56,,2013-03-30 18:12:00,
2013-03-30 13:22:00,65.0,55.0,29.92,NW,310,2.0,7.0,70,0.00,,,0.56,,2013-03-30 18:22:00,
2013-03-30 13:32:00,65.0,55.0,29.92,NW,309,0.0,4.0,70,0.00,,,0.56,,2013-03-30 18:32:00,
2013-03-30 13:42:00,65.0,55.0,29.92,NW,309,0.0,4.0,70,0.00,,,0.56,,2013-03-30 18:42:00,
2013-03-30 13:53:00,65.0,55.0,29.91,NW,308,4.0,6.0,71,0.00,,,0.56,,2013-03-30 18:53:00,
2013-03-30 14:03:00,67.0,57.0,29.91,NE,34,0.0,5.0,70,0.00,,,0.56,,2013-03-30 19:03:00,
2013-03-30 14:13:00,67.0,57.0,29.91,NE,34,0.0,5.0,70,0.00,,,0.56,,2013-03-30 19:13:00,
2013-03-30 14:22:00,69.0,58.0,29.91,NE,34,0.0,1.0,68,0.00,,,0.56,,2013-03-30 19:22:00,
2013-03-30 14:32:00,68.0,57.0,29.90,NE,56,0.0,2.0,68,0.00,,,0.56,,2013-03-30 19:32:00,
2013-03-30 14:42:00,68.0,57.0,29.90,NE,56,0.0,2.0,68,0.00,,,0.56,,2013-03-30 19:42:00,
2013-03-30 14:52:00,68.0,56.0,29.90,NNW,329,0.0,1.0,65,0.00,,,0.56,,2013-03-30 19:52:00,
2013-03-30 15:02:00,68.0,55.0,29.89,ENE,59,0.0,1.0,63,0.00,,,0.56,,2013-03-30 20:02:00,
2013-03-30 15:12:00,68.0,55.0,29.89,ENE,59,0.0,1.0,63,0.00,,,0.56,,2013-03-30 20:12:00,
2013-03-30 15:22:00,70.0,57.0,29.89,North,360,0.0,3.0,63,0.00,,,0.56,,2013-03-30 20:22:00,
2013-03-30 15:32:00,69.0,58.0,29.89,NE,53,0.0,2.0,67,0.00,,,0.56,,2013-03-30 20:32:00,
2013-03-30 15:42:00,69.0,58.0,29.89,NE,53,0.0,2.0,67,0.00,,,0.56,,2013-03-30 20:42:00,
2013-03-30 15:52:00,70.0,59.0,29.88,NE,50,0.0,0.0,68,0.00,,,0.56,,2013-03-30 20:52:00,
2013-03-30 16:02:00,71.0,57.0,29.88,NNW,327,1.0,3.0,62,0.00,,,0.56,,2013-03-30 21:02:00,
2013-03-30 16:12:00,71.0,57.0,29.88,NNW,327,1.0,3.0,62,0.00,,,0.56,,2013-03-30 21:12:00,
2013-03-30 16:22:00,71.0,57.0,29.88,ENE,69,0.0,1.0,61,0.00,,,0.56,,2013-03-30 21:22:00,
2013-03-30 16:33:00,71.0,56.0,29.87,ENE,68,0.0,1.0,60,0.00,,,0.56,,2013-03-30 21:33:00,
2013-03-30 16:43:00,71.0,56.0,29.87,ENE,68,0.0,1.0,60,0.00,,,0.56,,2013-03-30 21:43:00,
2013-03-30 16:52:00,71.0,55.0,29.87,NNW,338,0.0,3.0,58,0.00,,,0.56,,2013-03-30 21:52:00,
2013-03-30 17:03:00,71.0,57.0,29.86,NE,56,0.0,3.0,62,0.00,,,0.56,,2013-03-30 22:03:00,
2013-03-30 17:13:00,71.0,57.0,29.86,NE,56,0.0,3.0,62,0.00,,,0.56,,2013-03-30 22:13:00,
2013-03-30 17:23:00,72.0,58.0,29.86,NNW,327,2.0,6.0,61,0.00,,,0.56,,2013-03-30 22:23:00,
2013-03-30 17:33:00,73.0,57.0,29.86,ENE,69,1.0,3.0,58,0.00,,,0.56,,2013-03-30 22:33:00,
2013-03-30 17:43:00,73.0,57.0,29.86,ENE,69,1.0,3.0,58,0.00,,,0.56,,2013-03-30 22:43:00,
2013-03-30 17:53:00,73.0,58.0,29.85,NNE,19,0.0,3.0,60,0.00,,,0.56,,2013-03-30 22:53:00,
2013-03-30 18:02:00,72.0,57.0,29.86,NE,44,0.0,1.0,60,0.00,,,0.56,,2013-03-30 23:02:00,
2013-03-30 18:12:00,72.0,57.0,29.86,NE,44,0.0,1.0,60,0.00,,,0.56,,2013-03-30 23:12:00,
2013-03-30 18:22:00,72.0,57.0,29.86,North,355,0.0,5.0,60,0.00,,,0.56,,2013-03-30 23:22:00,
2013-03-30 18:32:00,72.0,56.0,29.87,NE,36,0.0,3.0,58,0.00,,,0.56,,2013-03-30 23:32:00,
2013-03-30 18:42:00,72.0,56.0,29.87,NE,36,0.0,3.0,58,0.00,,,0.56,,2013-03-30 23:42:00,
2013-03-30 18:52:00,71.0,54.0,29.87,NNW,345,1.0,5.0,56,0.00,,,0.56,,2013-03-30 23:52:00,
2013-03-30 19:02:00,70.0,54.0,29.87,North,360,0.0,5.0,57,0.00,,,0.56,,2013-03-31 00:02:00,
2013-03-30 19:12:00,70.0,54.0,29.87,North,360,0.0,5.0,57,0.00,,,0.56,,2013-03-31 00:12:00,
2013-03-30 19:22:00,69.0,53.0,29.87,North,355,0.0,5.0,57,0.00,,,0.56,,2013-03-31 00:22:00,
2013-03-30 19:32:00,68.0,53.0,29.87,NW,321,0.0,5.0,58,0.00,,,0.56,,2013-03-31 00:32:00,
2013-03-30 19:42:00,68.0,53.0,29.87,NW,321,0.0,5.0,58,0.00,,,0.56,,2013-03-31 00:42:00,
2013-03-30 19:52:00,67.0,55.0,29.88,NNW,327,0.0,0.0,65,0.00,,,0.56,,2013-03-31 00:52:00,
2013-03-30 20:02:00,65.0,54.0,29.88,NNW,327,0.0,1.0,68,0.00,,,0.56,,2013-03-31 01:02:00,
2013-03-30 20:12:00,65.0,54.0,29.88,NNW,327,0.0,1.0,68,0.00,,,0.56,,2013-03-31 01:12:00,
2013-03-30 20:22:00,63.0,53.0,29.89,NNW,327,0.0,0.0,71,0.00,,,0.56,,2013-03-31 01:22:00,
2013-03-30 20:32:00,61.0,53.0,29.89,NNW,327,0.0,0.0,74,0.00,,,0.56,,2013-03-31 01:32:00,
2013-03-30 20:42:00,61.0,53.0,29.89,NNW,327,0.0,0.0,74,0.00,,,0.56,,2013-03-31 01:42:00,
2013-03-30 20:52:00,59.0,51.0,29.90,NW,326,0.0,0.0,74,0.00,,,0.56,,2013-03-31 01:52:00,
2013-03-30 21:02:00,57.0,50.0,29.90,NW,326,0.0,0.0,78,0.00,,,0.56,,2013-03-31 02:02:00,
2013-03-30 21:13:00,57.0,50.0,29.90,NW,326,0.0,0.0,78,0.00,,,0.56,,2013-03-31 02:13:00,
2013-03-30 21:22:00,56.0,50.0,29.90,NW,326,0.0,0.0,80,0.00,,,0.56,,2013-03-31 02:22:00,
2013-03-30 21:32:00,55.0,49.0,29.91,NW,326,0.0,0.0,81,0.00,,,0.56,,2013-03-31 02:32:00,
2013-03-30 21:43:00,55.0,49.0,29.91,NW,326,0.0,0.0,81,0.00,,,0.56,,2013-03-31 02:43:00,
2013-03-30 21:52:00,54.0,49.0,29.91,NW,326,0.0,0.0,82,0.00,,,0.56,,2013-03-31 02:52:00,
2013-03-30 22:02:00,53.0,48.0,29.91,NW,325,0.0,0.0,83,0.00,,,0.56,,2013-03-31 03:02:00,
2013-03-30 22:12:00,53.0,48.0,29.91,NW,325,0.0,0.0,83,0.00,,,0.56,,2013-03-31 03:12:00,
2013-03-30 22:22:00,53.0,48.0,29.91,NW,325,0.0,0.0,84,0.00,,,0.56,,2013-03-31 03:22:00,
2013-03-30 22:33:00,53.0,49.0,29.94,NW,325,0.0,0.0,85,0.00,,,0.56,,2013-03-31 03:33:00,
2013-03-30 22:43:00,53.0,49.0,29.94,NW,325,0.0,0.0,85,0.00,,,0.56,,2013-03-31 03:43:00,
2013-03-30 22:53:00,52.0,48.0,29.95,NNW,338,0.0,2.0,86,0.00,,,0.56,,2013-03-31 03:53:00,
2013-03-30 23:03:00,52.0,-99.9,29.96,NNW,339,0.0,0.0,86,0.00,,,0.56,,2013-03-31 04:03:00,
2013-03-30 23:13:00,52.0,48.0,29.96,NNW,339,0.0,0.0,86,0.00,,,0.56,,2013-03-31 04:13:00,
2013-03-30 23:23:00,52.0,48.0,29.95,NNW,339,0.0,0.0,86,0.00,,,0.56,,2013-03-31 04:23:00,
2013-03-30 23:32:00,53.0,48.0,29.96,NNW,339,0.0,0.0,83,0.00,,,0.56,,2013-03-31 04:32:00,
2013-03-30 23:42:00,53.0,48.0,29.96,NNW,339,0.0,0.0,83,0.00,,,0.56,,2013-03-31 04:42:00,
2013-03-30 23:52:00,52.0,47.0,29.96,NNW,338,0.0,0.0,82,0.00,,,0.56,,2013-03-31 04:52:00,